[[{"header":{"parameterUnit":"m.s-1","parameterCategory":1,"la1":30.2991,"la2":30.254,"lo1":-89.0895,"lo2":-89.0444,"dy":0.0017,"dx":0.0017,"nx":28,"ny":28,"refTime":"2025-07-19T21:00:00:Z","depth":0,"parameterNumber":2,"parameterNumberName":"U-component_of_WINDS"},"data":[0,0,0,0,0,0,0,0,0,0,0,0,0,0,0,0,0,0,0,0,0,0,0,0,0,0,0,0,0,0,0,0,0,0,0,0,0,0,0,0,0,0,0,0,0,0,0,0,0,0,0,0,0,0,0,0,0,0,2.6523,2.6523,0,2.6565,2.6566,2.6566,2.6496,2.6493,2.6491,2.6489,2.6537,2.6541,2.6544,0,0,0,0,0,0,0,0,0,0,0,0,0,2.6385,2.6388,2.6523,2.6523,2.6524,2.6565,2.6566,2.6566,2.6496,2.6493,2.649,2.6487,2.6536,2.654,2.6544,0,0,0,0,0,0,0,0,0,0,0,0,0,2.6438,2.6389,2.6523,2.6494,2.6492,2.6565,2.6566,2.6566,2.6497,2.6493,2.6489,2.6486,2.6535,2.654,2.6545,2.665,0,0,2.6561,2.6564,0,0,0,0,0,0,0,0,2.6435,2.6443,2.6498,2.6496,2.6494,2.6521,2.6535,2.6595,2.6498,2.6495,2.6488,2.6484,2.6535,2.654,2.6556,2.6652,2.6655,2.6562,2.6565,2.6567,2.6569,0,0,0,0,0,0,0,2.6432,2.6441,2.654,2.6498,2.6496,2.648,2.6483,2.6546,2.6535,2.6495,2.649,2.6496,2.6533,2.6551,2.6557,2.6655,2.6562,2.6566,2.657,2.6572,2.6838,2.6841,0,0,0,0,0,0,2.6431,2.6438,2.6538,2.6541,2.6455,2.6485,2.6489,2.6516,2.6534,2.6533,2.6499,2.6492,2.6544,2.6551,2.6558,2.6681,2.6567,2.6572,2.6575,2.6834,2.6839,2.6843,0,0,0,0,0,0,2.6428,2.644,2.6537,2.6488,2.6499,2.6491,2.6522,2.6519,2.6536,2.6537,2.6535,2.6519,2.6541,2.6551,2.6627,2.6682,2.6575,2.6579,2.6829,2.6835,2.6841,2.6929,0,0,0,0,0,0,2.6425,2.644,2.6479,2.649,2.6502,2.6604,2.6526,2.6522,2.6545,2.6537,2.6555,2.6555,2.6539,2.6619,2.6632,2.6687,2.6584,2.6824,2.6832,2.6839,2.6921,2.6937,2.695,0,0,0,0,0,2.642,2.6504,2.6482,2.6494,2.6551,2.6607,2.6614,2.6594,2.655,2.659,2.6589,2.6554,2.6674,2.6628,2.6642,2.6699,2.6821,2.683,2.6838,2.6914,2.6933,2.695,0,0,0,0,0,0,2.6503,2.6505,2.648,2.657,2.6589,2.6595,2.6645,2.6615,2.6648,2.664,2.6614,2.6618,2.67,2.6707,2.6656,2.6801,2.674,2.6752,2.6793,2.6811,2.6826,2.6822,2.6588,0,0,0,0,0,2.6531,2.6575,2.6575,2.6655,2.6665,2.6653,2.6677,2.6659,2.6678,2.6687,2.6692,2.6713,2.6755,2.6784,2.6823,2.6921,2.6924,2.6967,2.6982,2.6994,2.7005,2.7056,2.7075,2.6871,2.6871,2.6871,0,0,2.6591,2.6597,2.6627,2.6671,2.6684,2.6731,2.6661,2.6714,2.6749,2.6695,2.6766,2.6771,2.6793,2.688,2.6919,2.6889,2.7061,2.7005,2.7015,2.7019,2.7067,2.7086,2.7103,2.6877,2.6876,2.6875,0,0,2.6723,2.6733,2.6799,2.6812,2.6831,2.6822,2.6838,2.6849,2.6849,2.6919,2.6879,2.6921,2.6995,2.7011,2.7029,2.7166,2.7134,2.7179,2.7257,2.7307,2.7323,2.7337,2.7384,2.7402,2.719,2.719,2.719,0,2.6796,2.6864,2.6837,2.6892,2.6913,2.6863,2.693,2.6945,2.6976,2.6992,2.6957,2.7046,2.7058,2.7147,2.718,2.7197,2.7214,2.7177,2.7322,2.7336,2.7349,2.7394,2.7412,2.7195,2.7195,2.7194,2.7194,0,2.6951,2.6999,2.705,2.7079,2.7105,2.7166,2.7149,2.7179,2.7158,2.7153,2.7225,2.7237,2.7276,2.7296,2.7278,2.7383,2.7363,2.7326,2.7264,2.7374,2.7416,2.7433,2.7203,2.7201,2.7199,2.7198,0,0,2.7139,2.7149,2.7169,2.718,2.7196,2.7233,2.7292,2.7328,2.7353,2.7376,2.7425,2.7487,2.7451,2.7472,2.7454,2.7498,2.7604,2.7455,2.7455,2.7482,2.7719,2.7747,2.7767,2.7583,2.7586,2.7588,2.7717,0,2.7269,2.7368,2.7345,2.7443,2.7486,2.7439,2.749,2.7505,2.7502,2.7539,2.7536,2.7579,2.753,2.7542,2.7583,2.7582,2.7651,2.7573,2.7628,2.763,2.7623,2.7789,2.7819,2.794,2.7733,2.7736,2.7738,0,2.7436,2.7462,2.7563,2.757,2.7587,2.7633,2.7663,2.7699,2.7716,2.771,2.7732,2.7705,2.7763,2.7701,2.7781,2.7728,2.7749,2.7752,2.7756,2.776,2.769,2.7797,2.7978,2.7996,2.7764,2.7762,2.776,0,2.7561,2.7622,2.769,2.7701,2.7711,2.7744,2.775,2.7763,2.7785,2.7812,2.7826,2.7861,2.788,2.7907,2.7891,2.7847,2.7973,2.7909,2.797,2.7971,2.7999,2.7998,2.8185,2.8014,2.8013,2.8013,2.8013,0,2.7709,2.7773,2.7746,2.7788,2.7857,2.783,2.79,2.7901,2.7912,2.7954,2.7916,2.7956,2.7932,2.797,2.7958,2.8025,2.8034,2.8032,2.8028,2.8035,2.8035,2.8048,2.8039,2.8018,2.8017,2.8016,2.8015,0,2.7861,2.7845,2.7916,2.7918,2.792,2.7972,2.7974,2.8013,2.8006,2.8059,2.807,2.806,2.8102,2.8088,2.8135,2.8127,2.8212,2.8197,2.8205,2.8202,2.8263,2.8257,2.8465,2.849,2.8303,2.8305,2.8307,0,2.7957,2.8004,2.801,2.8034,2.8042,2.8082,2.8104,2.8079,2.8103,2.8124,2.8161,2.82,2.8229,2.83,2.8298,2.8333,2.8318,2.8389,2.8324,2.8329,2.8318,2.8316,2.832,2.8402,2.8404,2.8406,2.8407,0,2.8127,2.8116,2.8149,2.8178,2.8204,2.8227,2.8246,2.8268,2.8244,2.8273,2.8315,2.8338,2.8384,2.8423,2.8454,2.8461,2.8431,2.8428,2.8443,2.8451,2.8454,2.8452,2.824,2.8423,2.8422,2.842,2.842,2.8419,2.8254,2.8293,2.8302,2.8339,2.835,2.8368,2.8404,2.84,2.8434,2.8468,2.8451,2.85,2.8514,2.8552,2.8563,2.8601,2.8574,2.8597,2.8603,2.8609,2.8616,2.8447,2.8607,2.8606,2.8606,2.8606,2.8605,0,2.8422,2.8425,2.8459,2.8485,2.8513,2.8479,2.8498,2.8525,2.8567,2.8582,2.8611,2.8658,2.8695,2.8694,2.8729,2.8759,2.8746,2.8769,2.8767,2.8768,2.8639,2.8621,2.8779,2.8779,2.8779,2.8779,2.8779,2.8779,2.8512,2.8576,2.8566,2.8635,2.8638,2.8683,2.8697,2.8713,2.8724,2.8778,2.8808,2.8806,2.8814,2.8848,2.8881,2.888,2.8894,2.8922,2.8916,2.8795,2.8778,2.8761,2.8745,2.8926,2.8926,2.9042,2.9043,2.9044]},{"header":{"parameterUnit":"m.s-1","parameterCategory":1,"la1":30.2991,"la2":30.254,"lo1":-89.0895,"lo2":-89.0444,"dy":0.0017,"dx":0.0017,"nx":28,"ny":28,"refTime":"2025-07-19T21:00:00:Z","depth":0,"parameterNumber":3,"parameterNumberName":"V-component_of_WINDS"},"data":[0,0,0,0,0,0,0,0,0,0,0,0,0,0,0,0,0,0,0,0,0,0,0,0,0,0,0,0,0,0,0,0,0,0,0,0,0,0,0,0,0,0,0,0,0,0,0,0,0,0,0,0,0,0,0,0,0,0,5.0079,5.0081,0,5.0269,5.0271,5.0274,5.0294,5.0292,5.029,5.0288,5.0471,5.0477,5.0484,0,0,0,0,0,0,0,0,0,0,0,0,0,4.9721,4.9728,5.0079,5.0081,5.0084,5.0269,5.0272,5.0274,5.0294,5.0292,5.029,5.0288,5.0469,5.0476,5.0484,0,0,0,0,0,0,0,0,0,0,0,0,0,4.989,4.973,5.0079,5.0117,5.0122,5.0269,5.0272,5.0275,5.0295,5.0292,5.0289,5.0286,5.0466,5.0476,5.0485,5.0604,0,0,5.0516,5.052,0,0,0,0,0,0,0,0,4.988,4.9903,5.0109,5.0114,5.012,5.0255,5.0212,5.0385,5.0296,5.0229,5.0288,5.0285,5.0401,5.0416,5.0457,5.0612,5.062,5.0517,5.0523,5.0527,5.053,0,0,0,0,0,0,0,4.9869,4.9895,5.0154,5.0111,5.0119,5.012,5.0141,5.0245,5.0328,5.0234,5.0236,5.0259,5.0403,5.0448,5.0462,5.0623,5.0516,5.0525,5.0531,5.0535,5.0882,5.0885,0,0,0,0,0,0,4.9852,4.9885,5.0148,5.016,4.9991,5.0129,5.0152,5.0215,5.0327,5.0341,5.0261,5.0259,5.0432,5.045,5.0468,5.0613,5.0527,5.0536,5.0542,5.0879,5.0883,5.0886,0,0,0,0,0,0,4.9844,4.9875,5.014,5.0023,5.0057,5.0138,5.0208,5.022,5.0265,5.0348,5.0361,5.0293,5.043,5.0454,5.057,5.062,5.0541,5.055,5.0875,5.088,5.0885,5.0905,0,0,0,0,0,0,4.9834,4.9872,4.9921,5.0024,5.0063,5.0243,5.0211,5.0226,5.0283,5.0282,5.038,5.0394,5.043,5.0555,5.058,5.0632,5.0557,5.0871,5.0877,5.0883,5.09,5.091,5.0918,0,0,0,0,0,4.9821,4.9916,4.9923,4.9955,5.0127,5.0246,5.0268,5.0312,5.0287,5.0335,5.0388,5.039,5.0611,5.0567,5.0595,5.0651,5.0868,5.0876,5.0883,5.0896,5.0908,5.0918,0,0,0,0,0,0,4.9812,4.9931,4.9939,5.0072,5.015,5.0249,5.0311,5.0323,5.0405,5.04,5.0447,5.0469,5.0583,5.0628,5.0578,5.077,5.0736,5.075,5.0737,5.0749,5.0757,5.0743,5.0566,0,0,0,0,0,4.9826,4.9918,5.0014,5.0122,5.0161,5.0229,5.0283,5.031,5.039,5.0421,5.0483,5.0557,5.0643,5.0698,5.0782,5.0907,5.0927,5.0958,5.0967,5.0974,5.0985,5.1052,5.1067,5.0911,5.091,5.091,0,0,4.9855,4.9931,4.9985,5.0122,5.0185,5.0275,5.0256,5.0352,5.0418,5.0435,5.0549,5.0597,5.0682,5.0803,5.0859,5.0844,5.1033,5.0984,5.0989,5.0995,5.1061,5.1076,5.1089,5.0915,5.0915,5.0914,0,0,4.9954,5.0022,5.0119,5.0183,5.028,5.0325,5.0348,5.0447,5.0481,5.0598,5.0612,5.0688,5.0836,5.0896,5.0946,5.1067,5.1072,5.1093,5.1139,5.1205,5.1217,5.1228,5.127,5.1285,5.1103,5.1103,5.1103,0,4.9976,5.0116,5.0166,5.0262,5.0321,5.0345,5.0441,5.0499,5.0617,5.0655,5.0637,5.0823,5.0882,5.1017,5.1047,5.1087,5.1112,5.1082,5.1212,5.1224,5.1235,5.1275,5.1291,5.1105,5.1105,5.1105,5.1105,0,5.0138,5.0235,5.03,5.0419,5.0484,5.058,5.064,5.07,5.0721,5.0766,5.0883,5.0956,5.1054,5.1088,5.1108,5.1225,5.1213,5.1203,5.117,5.1251,5.1289,5.1305,5.1108,5.1107,5.1107,5.1106,0,0,5.0236,5.0381,5.0404,5.0458,5.0567,5.064,5.0735,5.0836,5.0886,5.0965,5.1044,5.1168,5.1161,5.1217,5.1244,5.1302,5.1391,5.1285,5.1287,5.1301,5.1523,5.1528,5.1546,5.1396,5.1399,5.1402,5.1515,0,5.0346,5.0521,5.0569,5.0715,5.0803,5.0827,5.091,5.0983,5.1028,5.1106,5.1153,5.1241,5.1225,5.1259,5.1317,5.1368,5.1436,5.1361,5.1466,5.1469,5.1443,5.1566,5.1573,5.1677,5.1531,5.1533,5.1535,0,5.0498,5.0586,5.0743,5.0841,5.0879,5.0953,5.1048,5.1124,5.1206,5.1235,5.1299,5.132,5.1416,5.1379,5.151,5.1457,5.1503,5.1534,5.1539,5.1549,5.1506,5.1578,5.1711,5.1726,5.156,5.1558,5.1556,0,5.0552,5.0709,5.0823,5.0868,5.0985,5.1036,5.1087,5.1167,5.1224,5.1306,5.1343,5.1433,5.1482,5.1549,5.1593,5.1562,5.1719,5.1686,5.1742,5.1741,5.1773,5.1771,5.1914,5.1805,5.1805,5.1804,5.1804,0,5.0669,5.0764,5.0849,5.0919,5.1025,5.1076,5.1178,5.1228,5.1299,5.1376,5.1401,5.1472,5.1526,5.1603,5.1638,5.174,5.1761,5.1784,5.1792,5.1782,5.1779,5.1811,5.1804,5.1808,5.1808,5.1807,5.1806,0,5.0747,5.0809,5.0934,5.1036,5.1064,5.1137,5.1222,5.1288,5.1335,5.1432,5.1457,5.1528,5.162,5.1671,5.1785,5.1808,5.1922,5.1926,5.1895,5.1898,5.1952,5.1945,5.212,5.2144,5.202,5.2021,5.2022,0,5.0818,5.0892,5.1003,5.1059,5.1111,5.12,5.1259,5.1312,5.1372,5.1472,5.1525,5.162,5.1699,5.1844,5.1902,5.199,5.1995,5.2051,5.2008,5.1995,5.1994,5.1989,5.1996,5.2057,5.2058,5.2059,5.206,0,5.0936,5.0963,5.105,5.1149,5.122,5.1298,5.1376,5.1419,5.1483,5.1549,5.1646,5.1707,5.1826,5.1918,5.201,5.2057,5.2068,5.2073,5.2091,5.208,5.2059,5.207,5.1914,5.2068,5.2068,5.2067,5.2066,5.2066,5.1011,5.1078,5.1167,5.1263,5.1328,5.14,5.1468,5.1524,5.1607,5.1711,5.1736,5.1837,5.1915,5.2041,5.2091,5.2168,5.2157,5.2182,5.2189,5.2194,5.2195,5.2048,5.2184,5.2184,5.2184,5.2184,5.2184,0,5.1129,5.1188,5.1277,5.1387,5.1461,5.1471,5.1556,5.1617,5.1708,5.1782,5.186,5.197,5.206,5.2127,5.2217,5.2266,5.2273,5.2288,5.2284,5.2294,5.22,5.2176,5.228,5.228,5.228,5.228,5.228,5.228,5.1199,5.1313,5.135,5.1495,5.1552,5.1655,5.1703,5.1768,5.1829,5.1952,5.2029,5.2073,5.2144,5.224,5.2321,5.2338,5.2369,5.2383,5.24,5.2311,5.2301,5.2291,5.2268,5.239,5.239,5.2487,5.2488,5.2489]}]]